| time (UTC) | temp F | wind direction | speed MPH | gust MPH | rain 1hr in | rain 24hr in | rain mn in | humidity % | barometer mb |
| 20260905130201 | 56 | 214 | 9.0 | 9.0 | 0.00 | 0.00 | 0.00 | 38 | |
| 20260905125703 | 56 | 224 | 9.0 | 9.0 | 0.00 | 0.00 | 0.00 | 39 | |
| 20260905125206 | 56 | 245 | 11.0 | 8.0 | 0.00 | 0.00 | 0.00 | 40 | |
| 20260905124705 | 56 | 201 | 8.0 | 7.0 | 0.00 | 0.00 | 0.00 | 40 | |
| 20260905124207 | 56 | 225 | 8.0 | 12.0 | 0.00 | 0.00 | 0.00 | 41 | |
| 20260905123709 | 56 | 197 | 10.0 | 10.0 | 0.00 | 0.00 | 0.00 | 41 | |
| 20260905123212 | 56 | 211 | 11.0 | 10.0 | 0.00 | 0.00 | 0.00 | 42 | |
| 20260905122714 | 56 | 211 | 10.0 | 7.0 | 0.00 | 0.00 | 0.00 | 42 | |
| 20260905122216 | 56 | 232 | 9.0 | 7.0 | 0.00 | 0.00 | 0.00 | 42 | |
| 20260905121716 | 56 | 214 | 10.0 | 12.0 | 0.00 | 0.00 | 0.00 | 42 | |
| 20260905121218 | 56 | 228 | 9.0 | 9.0 | 0.00 | 0.00 | 0.00 | 43 | |
| 20260905120720 | 56 | 217 | 10.0 | 10.0 | 0.00 | 0.00 | 0.00 | 43 | |
| 20260905120222 | 56 | 218 | 9.0 | 9.0 | 0.00 | 0.00 | 0.00 | 43 | |
| 20260905115227 | 56 | 211 | 9.0 | 10.0 | 0.00 | 0.00 | 0.00 | 43 | |
| 20260905114726 | 56 | 232 | 7.0 | 7.0 | 0.00 | 0.00 | 0.00 | 43 | |
| 20260905114229 | 56 | 232 | 10.0 | 11.0 | 0.00 | 0.00 | 0.00 | 43 | |
| 20260905113731 | 57 | 221 | 9.0 | 9.0 | 0.00 | 0.00 | 0.00 | 43 | |
| 20260905113233 | 57 | 212 | 9.0 | 11.0 | 0.00 | 0.00 | 0.00 | 43 | |
| 20260905112736 | 57 | 245 | 10.0 | 8.0 | 0.00 | 0.00 | 0.00 | 43 | |
| 20260905112238 | 57 | 228 | 11.0 | 10.0 | 0.00 | 0.00 | 0.00 | 42 | |
| 20260905111737 | 57 | 211 | 7.0 | 11.0 | 0.00 | 0.00 | 0.00 | 42 | |
| 20260905111239 | 57 | 245 | 10.0 | 12.0 | 0.00 | 0.00 | 0.00 | 42 | |
| 20260905110742 | 57 | 210 | 9.0 | 8.0 | 0.00 | 0.00 | 0.00 | 42 | |
| 20260905110244 | 57 | 221 | 11.0 | 15.0 | 0.00 | 0.00 | 0.00 | 42 | |
| 20260905105746 | 57 | 203 | 11.0 | 9.0 | 0.00 | 0.00 | 0.00 | 42 | |
| 20260905105248 | 57 | 217 | 10.0 | 11.0 | 0.00 | 0.00 | 0.00 | 42 | |
| 20260905104250 | 57 | 224 | 8.0 | 7.0 | 0.00 | 0.00 | 0.00 | 42 | |
| 20260905103752 | 57 | 232 | 8.0 | 8.0 | 0.00 | 0.00 | 0.00 | 41 | |
| 20260905103255 | 57 | 221 | 11.0 | 12.0 | 0.00 | 0.00 | 0.00 | 41 | |
| 20260905102757 | 57 | 211 | 9.0 | 8.0 | 0.00 | 0.00 | 0.00 | 40 | |
| 20260905101301 | 57 | 222 | 10.0 | 8.0 | 0.00 | 0.00 | 0.00 | 39 | |
| 20260905100803 | 58 | 205 | 10.0 | 10.0 | 0.00 | 0.00 | 0.00 | 39 | |
| 20260905100305 | 58 | 224 | 12.0 | 15.0 | 0.00 | 0.00 | 0.00 | 39 | |
| 20260905095807 | 58 | 210 | 9.0 | 14.0 | 0.00 | 0.00 | 0.00 | 38 | |
| 20260905095310 | 58 | 215 | 13.0 | 15.0 | 0.00 | 0.00 | 0.00 | 38 | |
| 20260905094809 | 58 | 201 | 12.0 | 14.0 | 0.00 | 0.00 | 0.00 | 38 | |
| 20260905094311 | 58 | 184 | 11.0 | 10.0 | 0.00 | 0.00 | 0.00 | 37 | |
| 20260905093814 | 58 | 214 | 10.0 | 11.0 | 0.00 | 0.00 | 0.00 | 37 | |
| 20260905093316 | 58 | 198 | 11.0 | 8.0 | 0.00 | 0.00 | 0.00 | 36 | |
| 20260905092818 | 58 | 210 | 11.0 | 11.0 | 0.00 | 0.00 | 0.00 | 36 | |
| 20260905092320 | 58 | 215 | 12.0 | 15.0 | 0.00 | 0.00 | 0.00 | 35 | |
| 20260905091820 | 58 | 179 | 12.0 | 12.0 | 0.00 | 0.00 | 0.00 | 34 | |
| 20260905091323 | 0 | 195 | 14.0 | 13.0 | 0.00 | 0.00 | 0.00 | 34 | |
| 20260905090824 | 59 | 222 | 13.0 | 9.0 | 0.00 | 0.00 | 0.00 | 33 | |
| 20260905090326 | 59 | 201 | 12.0 | 13.0 | 0.00 | 0.00 | 0.00 | 32 | |
| 20260905085829 | 59 | 200 | 12.0 | 14.0 | 0.00 | 0.00 | 0.00 | 31 | |
| 20260905085332 | 0 | 0.0 | 0.0 | 0.00 | 0.00 | 0.00 | |||
| 20260905084830 | 59 | 194 | 13.0 | 14.0 | 0.00 | 0.00 | 0.00 | 32 | |
| 20260905084333 | 59 | 193 | 10.0 | 10.0 | 0.00 | 0.00 | 0.00 | 32 | |
| 20260905083835 | 59 | 204 | 12.0 | 14.0 | 0.00 | 0.00 | 0.00 | 32 | |
| 20260905083337 | 59 | 203 | 12.0 | 11.0 | 0.00 | 0.00 | 0.00 | 32 | |
| 20260905082839 | 59 | 212 | 9.0 | 8.0 | 0.00 | 0.00 | 0.00 | 31 | |
| 20260905082342 | 60 | 208 | 8.0 | 7.0 | 0.00 | 0.00 | 0.00 | 32 | |
| 20260905081841 | 60 | 197 | 10.0 | 10.0 | 0.00 | 0.00 | 0.00 | 32 | |
| 20260905081343 | 60 | 201 | 9.0 | 7.0 | 0.00 | 0.00 | 0.00 | 32 | |
| 20260905080846 | 60 | 210 | 10.0 | 8.0 | 0.00 | 0.00 | 0.00 | 32 | |
| 20260905080348 | 61 | 197 | 9.0 | 10.0 | 0.00 | 0.00 | 0.00 | 32 | |
| 20260905075850 | 62 | 203 | 9.0 | 8.0 | 0.00 | 0.00 | 0.00 | 30 | |
| 20260905075352 | 62 | 204 | 10.0 | 13.0 | 0.00 | 0.00 | 0.00 | 28 | |
| 20260905074852 | 62 | 156 | 14.0 | 12.0 | 0.00 | 0.00 | 0.00 | 29 | |
| 20260905074354 | 62 | 170 | 12.0 | 12.0 | 0.00 | 0.00 | 0.00 | 30 | |
| 20260905073856 | 62 | 170 | 13.0 | 15.0 | 0.00 | 0.00 | 0.00 | 30 | |
| 20260905073358 | 63 | 176 | 10.0 | 11.0 | 0.00 | 0.00 | 0.00 | 30 | |
| 20260905072901 | 63 | 169 | 10.0 | 10.0 | 0.00 | 0.00 | 0.00 | 30 | |
| 20260905072404 | 63 | 184 | 13.0 | 15.0 | 0.00 | 0.00 | 0.00 | 30 | |
| 20260905071902 | 63 | 181 | 14.0 | 16.0 | 0.00 | 0.00 | 0.00 | 30 | |
| 20260905071404 | 63 | 179 | 15.0 | 15.0 | 0.00 | 0.00 | 0.00 | 30 | |
| 20260905070907 | 63 | 174 | 16.0 | 14.0 | 0.00 | 0.00 | 0.00 | 30 | |
| 20260905065911 | 64 | 167 | 15.0 | 19.0 | 0.00 | 0.00 | 0.00 | 30 | |
| 20260905065414 | 64 | 177 | 14.0 | 17.0 | 0.00 | 0.00 | 0.00 | 29 | |
| 20260905064913 | 64 | 201 | 19.0 | 16.0 | 0.00 | 0.00 | 0.00 | 30 | |
| 20260905064415 | 64 | 173 | 18.0 | 21.0 | 0.00 | 0.00 | 0.00 | 30 | |
| 20260905063917 | 64 | 153 | 17.0 | 17.0 | 0.00 | 0.00 | 0.00 | 30 | |
| 20260905063420 | 64 | 187 | 19.0 | 20.0 | 0.00 | 0.00 | 0.00 | 30 | |
| 20260905062922 | 65 | 186 | 20.0 | 18.0 | 0.00 | 0.00 | 0.00 | 31 | |
| 20260905062424 | 65 | 180 | 20.0 | 17.0 | 0.00 | 0.00 | 0.00 | 31 | |
| 20260905061923 | 65 | 159 | 19.0 | 18.0 | 0.00 | 0.00 | 0.00 | 31 | |
| 20260905061426 | 65 | 188 | 20.0 | 16.0 | 0.00 | 0.00 | 0.00 | 31 | |
| 20260905060431 | 65 | 191 | 21.0 | 17.0 | 0.00 | 0.00 | 0.00 | 31 | |
| 20260905055933 | 65 | 184 | 20.0 | 19.0 | 0.00 | 0.00 | 0.00 | 31 | |
| 20260905055435 | 65 | 184 | 18.0 | 24.0 | 0.00 | 0.00 | 0.00 | 30 | |
| 20260905054934 | 65 | 167 | 21.0 | 18.0 | 0.00 | 0.00 | 0.00 | 30 | |
| 20260905054436 | 65 | 163 | 21.0 | 17.0 | 0.00 | 0.00 | 0.00 | 29 | |
| 20260905053939 | 65 | 174 | 22.0 | 13.0 | 0.00 | 0.00 | 0.00 | 29 | |
| 20260905053441 | 65 | 191 | 20.0 | 23.0 | 0.00 | 0.00 | 0.00 | 29 | |
| 20260905052943 | 65 | 184 | 21.0 | 20.0 | 0.00 | 0.00 | 0.00 | 29 | |
| 20260905052446 | 65 | 183 | 19.0 | 20.0 | 0.00 | 0.00 | 0.00 | 27 | |
| 20260905051945 | 65 | 186 | 15.0 | 17.0 | 0.00 | 0.00 | 0.00 | 25 | |
| 20260905051447 | 65 | 186 | 19.0 | 21.0 | 0.00 | 0.00 | 0.00 | 24 | |
| 20260905050949 | 66 | 177 | 16.0 | 17.0 | 0.00 | 0.00 | 0.00 | 24 | |
| 20260905050452 | 66 | 195 | 14.0 | 10.0 | 0.00 | 0.00 | 0.00 | 23 | |
| 20260905045954 | 66 | 180 | 17.0 | 16.0 | 0.00 | 0.00 | 0.00 | 22 | |
| 20260905045456 | 67 | 187 | 13.0 | 21.0 | 0.00 | 0.00 | 0.00 | 21 | |
| 20260905044955 | 67 | 204 | 15.0 | 18.0 | 0.00 | 0.00 | 0.00 | 21 | |
| 20260905044458 | 67 | 197 | 16.0 | 15.0 | 0.00 | 0.00 | 0.00 | 21 | |
| 20260905044000 | 67 | 203 | 15.0 | 17.0 | 0.00 | 0.00 | 0.00 | 19 | |
| 20260905043502 | 67 | 195 | 19.0 | 18.0 | 0.00 | 0.00 | 0.00 | 18 | |
| 20260905043005 | 67 | 191 | 20.0 | 18.0 | 0.00 | 0.00 | 0.00 | 19 | |
| 20260905042006 | 67 | 214 | 17.0 | 17.0 | 0.00 | 0.00 | 0.00 | 19 | |
| 20260905041508 | 67 | 193 | 18.0 | 15.0 | 0.00 | 0.00 | 0.00 | 20 | |
| 20260905041010 | 67 | 183 | 16.0 | 15.0 | 0.00 | 0.00 | 0.00 | 21 | |
| 20260905040513 | 67 | 193 | 18.0 | 19.0 | 0.00 | 0.00 | 0.00 | 23 | |
| 20260905040015 | 67 | 205 | 15.0 | 19.0 | 0.00 | 0.00 | 0.00 | 25 | |
| 20260905035517 | 67 | 187 | 14.0 | 16.0 | 0.00 | 0.00 | 0.00 | 25 | |
| 20260905035016 | 68 | 191 | 19.0 | 15.0 | 0.00 | 0.00 | 0.00 | 24 | |
| 20260905034519 | 68 | 193 | 18.0 | 21.0 | 0.00 | 0.00 | 0.00 | 24 | |
| 20260905033523 | 68 | 190 | 19.0 | 15.0 | 0.00 | 0.00 | 0.00 | 25 | |
| 20260905033026 | 68 | 193 | 20.0 | 19.0 | 0.00 | 0.00 | 0.00 | 25 | |
| 20260905032528 | 68 | 198 | 20.0 | 26.0 | 0.00 | 0.00 | 0.00 | 26 | |
| 20260905032028 | 68 | 205 | 21.0 | 23.0 | 0.00 | 0.00 | 0.00 | 26 | |
| 20260905031529 | 68 | 207 | 19.0 | 17.0 | 0.00 | 0.00 | 0.00 | 25 | |
| 20260905031032 | 68 | 191 | 19.0 | 22.0 | 0.00 | 0.00 | 0.00 | 25 | |
| 20260905030534 | 68 | 208 | 21.0 | 16.0 | 0.00 | 0.00 | 0.00 | 25 | |
| 20260905030036 | 68 | 186 | 21.0 | 14.0 | 0.00 | 0.00 | 0.00 | 25 | |
| 20260905025538 | 68 | 201 | 21.0 | 22.0 | 0.00 | 0.00 | 0.00 | 25 | |
| 20260905025038 | 68 | 210 | 19.0 | 17.0 | 0.00 | 0.00 | 0.00 | 25 | |
| 20260905024540 | 69 | 194 | 16.0 | 21.0 | 0.00 | 0.00 | 0.00 | 25 | |
| 20260905024042 | 69 | 200 | 19.0 | 21.0 | 0.00 | 0.00 | 0.00 | 25 | |
| 20260905023544 | 69 | 212 | 19.0 | 17.0 | 0.00 | 0.00 | 0.00 | 24 | |
| 20260905023047 | 69 | 191 | 18.0 | 22.0 | 0.00 | 0.00 | 0.00 | 23 | |
| 20260905022549 | 69 | 193 | 22.0 | 21.0 | 0.00 | 0.00 | 0.00 | 22 | |
| 20260905022048 | 69 | 195 | 17.0 | 16.0 | 0.00 | 0.00 | 0.00 | 22 | |
| 20260905021550 | 70 | 181 | 21.0 | 23.0 | 0.00 | 0.00 | 0.00 | 21 | |
| 20260905021053 | 70 | 183 | 26.0 | 23.0 | 0.00 | 0.00 | 0.00 | 21 | |
| 20260905020555 | 70 | 186 | 23.0 | 17.0 | 0.00 | 0.00 | 0.00 | 20 | |
| 20260905020058 | 70 | 190 | 20.0 | 20.0 | 0.00 | 0.00 | 0.00 | 19 | |
| 20260905015059 | 71 | 184 | 19.0 | 19.0 | 0.00 | 0.00 | 0.00 | 16 | |
| 20260905014601 | 71 | 200 | 19.0 | 17.0 | 0.00 | 0.00 | 0.00 | 15 | |
| 20260905014103 | 72 | 207 | 20.0 | 21.0 | 0.00 | 0.00 | 0.00 | 15 | |
| 20260905013605 | 72 | 190 | 20.0 | 20.0 | 0.00 | 0.00 | 0.00 | 14 | |
| 20260905013108 | 72 | 191 | 18.0 | 18.0 | 0.00 | 0.00 | 0.00 | 13 | |
| 20260905012610 | 72 | 187 | 20.0 | 20.0 | 0.00 | 0.00 | 0.00 | 12 | |
| 20260905012109 | 72 | 201 | 25.0 | 26.0 | 0.00 | 0.00 | 0.00 | 12 | |
| 20260905011114 | 73 | 198 | 20.0 | 18.0 | 0.00 | 0.00 | 0.00 | 13 | |
| 20260905010617 | 0 | 167 | 19.0 | 0.0 | 0.00 | 0.00 | 0.00 | ||
| 20260905010118 | 73 | 184 | 23.0 | 18.0 | 0.00 | 0.00 | 0.00 | 15 | |
| 20260905005621 | 73 | 194 | 19.0 | 18.0 | 0.00 | 0.00 | 0.00 | 15 | |
| 20260905005120 | 73 | 187 | 14.0 | 22.0 | 0.00 | 0.00 | 0.00 | 13 | |
| 20260905004622 | 73 | 183 | 19.0 | 25.0 | 0.00 | 0.00 | 0.00 | 12 | |
| 20260905004124 | 73 | 195 | 17.0 | 17.0 | 0.00 | 0.00 | 0.00 | 11 | |
| 20260905003626 | 73 | 180 | 19.0 | 22.0 | 0.00 | 0.00 | 0.00 | 12 | |
| 20260905003129 | 74 | 194 | 23.0 | 30.0 | 0.00 | 0.00 | 0.00 | 12 | |
| 20260905002631 | 74 | 180 | 22.0 | 21.0 | 0.00 | 0.00 | 0.00 | 10 | |
| 20260905002130 | 74 | 195 | 22.0 | 23.0 | 0.00 | 0.00 | 0.00 | 11 | |
| 20260905001633 | 74 | 203 | 21.0 | 30.0 | 0.00 | 0.00 | 0.00 | 9 | |
| 20260905001135 | 74 | 188 | 24.0 | 22.0 | 0.00 | 0.00 | 0.00 | 9 | |
| 20260905000637 | 74 | 190 | 22.0 | 23.0 | 0.00 | 0.00 | 0.00 | 8 | |
| 20260905000139 | 74 | 191 | 24.0 | 22.0 | 0.00 | 0.00 | 0.00 | 8 | |
| 20260904235641 | 74 | 184 | 23.0 | 18.0 | 0.00 | 0.00 | 0.00 | 8 | |
| 20260904235141 | 75 | 204 | 22.0 | 24.0 | 0.00 | 0.00 | 0.00 | 8 | |
| 20260904234643 | 75 | 198 | 21.0 | 23.0 | 0.00 | 0.00 | 0.00 | 8 | |
| 20260904234145 | 75 | 188 | 20.0 | 19.0 | 0.00 | 0.00 | 0.00 | 8 | |
| 20260904233647 | 75 | 197 | 20.0 | 28.0 | 0.00 | 0.00 | 0.00 | 8 | |
| 20260904233150 | 75 | 188 | 23.0 | 21.0 | 0.00 | 0.00 | 0.00 | 8 | |
| 20260904232652 | 75 | 190 | 18.0 | 17.0 | 0.00 | 0.00 | 0.00 | 9 | |
| 20260904232151 | 76 | 184 | 21.0 | 24.0 | 0.00 | 0.00 | 0.00 | 8 | |
| 20260904231653 | 76 | 181 | 23.0 | 30.0 | 0.00 | 0.00 | 0.00 | 8 | |
| 20260904231155 | 76 | 184 | 16.0 | 12.0 | 0.00 | 0.00 | 0.00 | 6 | |
| 20260904230658 | 76 | 152 | 18.0 | 13.0 | 0.00 | 0.00 | 0.00 | 8 | |
| 20260904225702 | 76 | 177 | 20.0 | 15.0 | 0.00 | 0.00 | 0.00 | 8 | |
| 20260904225201 | 76 | 170 | 22.0 | 17.0 | 0.00 | 0.00 | 0.00 | 8 | |
| 20260904224703 | 76 | 177 | 20.0 | 21.0 | 0.00 | 0.00 | 0.00 | 7 | |
| 20260904224206 | 76 | 165 | 17.0 | 15.0 | 0.00 | 0.00 | 0.00 | 7 | |
| 20260904223708 | 76 | 186 | 21.0 | 18.0 | 0.00 | 0.00 | 0.00 | 6 | |
| 20260904223210 | 76 | 197 | 18.0 | 25.0 | 0.00 | 0.00 | 0.00 | 6 | |
| 20260904222212 | 76 | 195 | 22.0 | 18.0 | 0.00 | 0.00 | 0.00 | 6 | |
| 20260904221714 | 76 | 197 | 18.0 | 17.0 | 0.00 | 0.00 | 0.00 | 6 | |
| 20260904221335 | 76 | 208 | 19.0 | 9.0 | 0.00 | 0.00 | 0.00 | 6 | |
| 20260904221216 | 76 | 208 | 19.0 | 9.0 | 0.00 | 0.00 | 0.00 | 6 | |
| 20260904220718 | 77 | 188 | 17.0 | 23.0 | 0.00 | 0.00 | 0.00 | 6 | |
| 20260904220221 | 77 | 187 | 20.0 | 23.0 | 0.00 | 0.00 | 0.00 | 6 | |
| 20260904215723 | 77 | 194 | 17.0 | 13.0 | 0.00 | 0.00 | 0.00 | 6 | |
| 20260904215222 | 77 | 195 | 17.0 | 24.0 | 0.00 | 0.00 | 0.00 | 6 | |
| 20260904214724 | 77 | 203 | 16.0 | 10.0 | 0.00 | 0.00 | 0.00 | 6 | |
| 20260904214227 | 77 | 186 | 18.0 | 27.0 | 0.00 | 0.00 | 0.00 | 6 | |
| 20260904213729 | 78 | 200 | 21.0 | 7.0 | 0.00 | 0.00 | 0.00 | 6 | |
| 20260904213231 | 78 | 188 | 15.0 | 19.0 | 0.00 | 0.00 | 0.00 | 6 | |
| 20260904212733 | 78 | 193 | 15.0 | 13.0 | 0.00 | 0.00 | 0.00 | 6 | |
| 20260904212232 | 78 | 198 | 17.0 | 17.0 | 0.00 | 0.00 | 0.00 | 5 | |
| 20260904211735 | 78 | 210 | 12.0 | 16.0 | 0.00 | 0.00 | 0.00 | 6 | |
| 20260904211237 | 78 | 191 | 19.0 | 15.0 | 0.00 | 0.00 | 0.00 | 6 | |
| 20260904210739 | 78 | 207 | 14.0 | 17.0 | 0.00 | 0.00 | 0.00 | 5 | |
| 20260904210242 | 78 | 214 | 15.0 | 16.0 | 0.00 | 0.00 | 0.00 | 6 | |
| 20260904205744 | 78 | 184 | 9.0 | 18.0 | 0.00 | 0.00 | 0.00 | 5 | |
| 20260904205243 | 78 | 203 | 19.0 | 21.0 | 0.00 | 0.00 | 0.00 | 6 | |
| 20260904204745 | 77 | 205 | 12.0 | 10.0 | 0.00 | 0.00 | 0.00 | 6 | |
| 20260904204248 | 78 | 191 | 18.0 | 11.0 | 0.00 | 0.00 | 0.00 | 6 | |
| 20260904203750 | 78 | 181 | 19.0 | 19.0 | 0.00 | 0.00 | 0.00 | 6 | |
| 20260904203252 | 79 | 195 | 13.0 | 22.0 | 0.00 | 0.00 | 0.00 | 6 | |
| 20260904202754 | 79 | 212 | 14.0 | 19.0 | 0.00 | 0.00 | 0.00 | 5 | |
| 20260904202253 | 79 | 205 | 13.0 | 14.0 | 0.00 | 0.00 | 0.00 | 5 | |
| 20260904201756 | 80 | 195 | 12.0 | 10.0 | 0.00 | 0.00 | 0.00 | 5 | |
| 20260904201258 | 80 | 226 | 17.0 | 24.0 | 0.00 | 0.00 | 0.00 | 5 | |
| 20260904200800 | 79 | 236 | 0.0 | 8.0 | 0.00 | 0.00 | 0.00 | 5 | |
| 20260904200303 | 79 | 229 | 15.0 | 0.0 | 0.00 | 0.00 | 0.00 | 5 | |
| 20260904195805 | 79 | 225 | 5.0 | 15.0 | 0.00 | 0.00 | 0.00 | 5 | |
| 20260904195306 | 79 | 211 | 11.0 | 14.0 | 0.00 | 0.00 | 0.00 | 5 | |
| 20260904194806 | 78 | 248 | 1.0 | 5.0 | 0.00 | 0.00 | 0.00 | 6 | |
| 20260904193811 | 77 | 179 | 0.0 | 0.0 | 0.00 | 0.00 | 0.00 | 6 | |
| 20260904193313 | 77 | 204 | 0.0 | 0.0 | 0.00 | 0.00 | 0.00 | 6 | |
| 20260904192815 | 77 | 207 | 11.0 | 0.0 | 0.00 | 0.00 | 0.00 | 6 | |
| 20260904192314 | 76 | 218 | 7.0 | 0.0 | 0.00 | 0.00 | 0.00 | 6 | |
| 20260904191817 | 76 | 222 | 4.0 | 9.0 | 0.00 | 0.00 | 0.00 | 6 | |
| 20260904191319 | 75 | 183 | 8.0 | 4.0 | 0.00 | 0.00 | 0.00 | 6 | |
| 20260904190821 | 76 | 193 | 7.0 | 21.0 | 0.00 | 0.00 | 0.00 | 6 | |
| 20260904190324 | 76 | 204 | 9.0 | 9.0 | 0.00 | 0.00 | 0.00 | 6 | |
| 20260904185826 | 75 | 233 | 7.0 | 15.0 | 0.00 | 0.00 | 0.00 | 6 | |
| 20260904185325 | 75 | 221 | 6.0 | 10.0 | 0.00 | 0.00 | 0.00 | 6 | |
| 20260904184827 | 74 | 205 | 12.0 | 13.0 | 0.00 | 0.00 | 0.00 | 7 | |
| 20260904183832 | 74 | 211 | 9.0 | 0.0 | 0.00 | 0.00 | 0.00 | 6 | |
| 20260904183334 | 74 | 235 | 15.0 | 7.0 | 0.00 | 0.00 | 0.00 | 6 | |
| 20260904182837 | 73 | 214 | 15.0 | 0.0 | 0.00 | 0.00 | 0.00 | 6 | |
| 20260904182336 | 73 | 219 | 15.0 | 9.0 | 0.00 | 0.00 | 0.00 | 6 | |
| 20260904181838 | 73 | 179 | 11.0 | 3.0 | 0.00 | 0.00 | 0.00 | 6 | |
| 20260904181340 | 73 | 205 | 13.0 | 19.0 | 0.00 | 0.00 | 0.00 | 6 | |
| 20260904180843 | 73 | 208 | 10.0 | 17.0 | 0.00 | 0.00 | 0.00 | 6 | |
| 20260904175847 | 73 | 184 | 9.0 | 6.0 | 0.00 | 0.00 | 0.00 | 7 | |
| 20260904175346 | 73 | 236 | 12.0 | 16.0 | 0.00 | 0.00 | 0.00 | 6 | |
| 20260904174849 | 73 | 226 | 13.0 | 9.0 | 0.00 | 0.00 | 0.00 | 7 | |
| 20260904174352 | 73 | 239 | 0.0 | 0.0 | 0.00 | 0.00 | 0.00 | 7 | |
| 20260904173853 | 73 | 239 | 0.0 | 0.0 | 0.00 | 0.00 | 0.00 | 8 | |
| 20260904173356 | 72 | 226 | 0.0 | 0.0 | 0.00 | 0.00 | 0.00 | 9 | |
| 20260904172858 | 72 | 226 | 0.0 | 0.0 | 0.00 | 0.00 | 0.00 | 10 | |
| 20260904172357 | 72 | 229 | 10.0 | 12.0 | 0.00 | 0.00 | 0.00 | 11 | |
| 20260904171859 | 71 | 231 | 12.0 | 5.0 | 0.00 | 0.00 | 0.00 | 12 | |
| 20260904171401 | 71 | 224 | 10.0 | 10.0 | 0.00 | 0.00 | 0.00 | 13 | |
| 20260904170904 | 71 | 218 | 13.0 | 10.0 | 0.00 | 0.00 | 0.00 | 14 | |
| 20260904170406 | 70 | 239 | 5.0 | 12.0 | 0.00 | 0.00 | 0.00 | 16 | |
| 20260904165407 | 69 | 253 | 13.0 | 3.0 | 0.00 | 0.00 | 0.00 | 17 | |
| 20260904164911 | 69 | 235 | 12.0 | 13.0 | 0.00 | 0.00 | 0.00 | 17 | |
| 20260904164412 | 68 | 221 | 10.0 | 8.0 | 0.00 | 0.00 | 0.00 | 18 | |
| 20260904163915 | 68 | 231 | 11.0 | 8.0 | 0.00 | 0.00 | 0.00 | 19 | |
| 20260904163417 | 68 | 172 | 0.0 | 0.0 | 0.00 | 0.00 | 0.00 | 19 | |
| 20260904162919 | 68 | 215 | 9.0 | 7.0 | 0.00 | 0.00 | 0.00 | 21 | |
| 20260904162418 | 67 | 212 | 7.0 | 8.0 | 0.00 | 0.00 | 0.00 | 23 | |
| 20260904161920 | 67 | 172 | 11.0 | 12.0 | 0.00 | 0.00 | 0.00 | 25 | |
| 20260904161423 | 66 | 256 | 7.0 | 8.0 | 0.00 | 0.00 | 0.00 | 26 | |
| 20260904160925 | 66 | 194 | 9.0 | 5.0 | 0.00 | 0.00 | 0.00 | 28 | |
| 20260904160427 | 65 | 191 | 10.0 | 6.0 | 0.00 | 0.00 | 0.00 | 30 | |
| 20260904155930 | 65 | 233 | 7.0 | 11.0 | 0.00 | 0.00 | 0.00 | 33 | |
| 20260904155429 | 64 | 222 | 9.0 | 12.0 | 0.00 | 0.00 | 0.00 | 35 | |
| 20260904154434 | 63 | 208 | 9.0 | 8.0 | 0.00 | 0.00 | 0.00 | 39 | |
| 20260904153936 | 62 | 226 | 9.0 | 15.0 | 0.00 | 0.00 | 0.00 | 41 | |
| 20260904153438 | 62 | 219 | 11.0 | 10.0 | 0.00 | 0.00 | 0.00 | 42 | |
| 20260904152941 | 61 | 222 | 9.0 | 10.0 | 0.00 | 0.00 | 0.00 | 44 | |
| 20260904152440 | 61 | 222 | 12.0 | 12.0 | 0.00 | 0.00 | 0.00 | 48 | |
| 20260904151942 | 60 | 201 | 12.0 | 11.0 | 0.00 | 0.00 | 0.00 | 50 | |
| 20260904151444 | 60 | 233 | 11.0 | 9.0 | 0.00 | 0.00 | 0.00 | 54 | |
| 20260904150946 | 59 | 229 | 8.0 | 3.0 | 0.00 | 0.00 | 0.00 | 58 | |
| 20260904150449 | 59 | 229 | 10.0 | 13.0 | 0.00 | 0.00 | 0.00 | 61 | |
| 20260904145951 | 58 | 228 | 11.0 | 7.0 | 0.00 | 0.00 | 0.00 | 66 | |
| 20260904145450 | 58 | 207 | 9.0 | 9.0 | 0.00 | 0.00 | 0.00 | 70 | |
| 20260904144952 | 57 | 215 | 9.0 | 10.0 | 0.00 | 0.00 | 0.00 | 74 | |
| 20260904144455 | 57 | 207 | 1.0 | 9.0 | 0.00 | 0.00 | 0.00 | 79 | |
| 20260904143957 | 56 | 231 | 6.0 | 5.0 | 0.00 | 0.00 | 0.00 | 82 | |
| 20260904143459 | 56 | 246 | 12.0 | 8.0 | 0.00 | 0.00 | 0.00 | 86 | |
| 20260904143002 | 55 | 201 | 13.0 | 10.0 | 0.00 | 0.00 | 0.00 | 90 | |
| 20260904142501 | 55 | 222 | 11.0 | 12.0 | 0.00 | 0.00 | 0.00 | 91 | |
| 20260904142002 | 55 | 231 | 12.0 | 15.0 | 0.00 | 0.00 | 0.00 | 92 | |
| 20260904141504 | 55 | 203 | 15.0 | 17.0 | 0.00 | 0.00 | 0.00 | 93 | |
| 20260904141007 | 54 | 232 | 11.0 | 9.0 | 0.00 | 0.00 | 0.00 | 93 | |
| 20260904140509 | 54 | 231 | 9.0 | 10.0 | 0.00 | 0.00 | 0.00 | 93 | |
| 20260904140011 | 54 | 226 | 14.0 | 16.0 | 0.00 | 0.00 | 0.00 | 93 | |
| 20260904135510 | 54 | 257 | 14.0 | 16.0 | 0.00 | 0.00 | 0.00 | 93 | |
| 20260904134515 | 54 | 217 | 13.0 | 14.0 | 0.00 | 0.00 | 0.00 | 93 | |
| 20260904134017 | 54 | 243 | 12.0 | 10.0 | 0.00 | 0.00 | 0.00 | 92 | |
| 20260904133520 | 54 | 225 | 13.0 | 13.0 | 0.00 | 0.00 | 0.00 | 91 | |
| 20260904133023 | 54 | 211 | 9.0 | 11.0 | 0.00 | 0.00 | 0.00 | 91 | |
| 20260904132521 | 54 | 231 | 13.0 | 11.0 | 0.00 | 0.00 | 0.00 | 90 | |
| 20260904132024 | 54 | 217 | 12.0 | 13.0 | 0.00 | 0.00 | 0.00 | 90 | |
| 20260904131526 | 54 | 221 | 14.0 | 11.0 | 0.00 | 0.00 | 0.00 | 88 | |
| 20260904131028 | 54 | 232 | 10.0 | 9.0 | 0.00 | 0.00 | 0.00 | 88 | |
| 20260904130530 | 54 | 229 | 11.0 | 12.0 | 0.00 | 0.00 | 0.00 | 87 |